Hourly Data Report for March 18, 2012

BAGOTVILLE A
QUEBEC

48°20'00.000" N
71°00'00.000" W
159.10 m
7060400
71727
YBG

Download Data

Hourly Data (March 2012)
Hourly Data Report for March 18, 2012
TIME
LST
Temp Definition
°C
Dew Point Definition
°C
Rel Hum Definition
%
Precip. Amount Definition
mm

Wind Dir Definition
10's deg

Wind Spd Definition
km/h
Visibility Definition
km
Stn Press Definition
kPa
Hmdx Definition


Wind Chill Definition


Weather Definition


00:00 4.1 0.9 80     0 24.1 99.79     Cloudy
01:00 3.4 1.1 85     0 24.1 99.77     Thunderstorms
02:00 2.5 1.3 92   13 4 24.1 99.67     Cloudy
03:00 2.1 1.9 99   15 6 3.2 99.74     Thunderstorms,Heavy Rain Showers,Fog
04:00 2.8 2.1 95   18 11 16.1 99.62     Rain Showers
05:00 3.0 2.3 95     0 24.1 99.66     Cloudy
06:00 2.6 2.1 96   18 7 16.1 99.66     Cloudy
07:00 4.2 3.6 96   9 6 16.1 99.70     Cloudy
08:00 3.9 3.2 95   15 4 16.1 99.69     Cloudy
09:00 3.5 2.8 95   19 4 16.1 99.66     Cloudy
10:00 4.4 4.0 97     0 9.7 99.70     Fog
11:00 5.9 5.1 95     0 9.7 99.63     Fog
12:00 7.1 5.9 92   2 4 9.7 99.62     Fog
13:00 6.7 6.3 97   8 7 1.2 99.61     Fog
14:00 7.1 6.7 97   5 6 0.8 99.61     Fog
15:00 8.7 8.1 96   30 11 3.2 99.65     Drizzle,Fog
16:00 8.0 7.8 99   29 6 0.8 99.59     Fog
17:00 8.0 7.6 97   27 19 0.4 99.67     Fog
18:00 8.5 8.3 99   28 11 0.8 99.65     Fog
19:00 5.7 5.7 100     0 0.6 99.73     Fog
20:00 5.4 5.4 100     0 0.4 99.81     Fog
21:00 5.3 5.3 100   20 6 0.4 99.87     Fog
22:00 5.3 5.3 100     0 0.8 99.92     Fog
23:00 4.3 4.1 99   28 9 0.8 99.97     Fog

Notes on Data Quality.

Legend

  • E = Estimated
  • M = Missing
  • NA = Not Available*
  • [empty] = Indicates an unobserved value
Date modified: